This demonstration page uses our WeatherBlox Daily Observations layout. Learn more.

Left ArrowRight Arrow

31.31129, -92.44514

Hourly Observations for August 10, 2018

Temp ( °F °C ) Dew Point ( °F °C ) Humidity (%) Winds ( mph kmh ) Pressure ( in mb ) Visibility ( mi km ) Precip ( " mm )
12:53 am 00:53 Clear 74 23.3 72 22.2 94 94 Calm 30.03 1017 9 14 0.00 0.00
1:53 am 01:53 Clear 74 23.3 72 22.2 94 94 SE 3 6 30.01 1016 8 13 0.00 0.00
2:53 am 02:53 Clear 74 23.3 73 22.8 97 97 Calm 30.01 1016 9 14 0.00 0.00
3:53 am 03:53 Clear 73 22.8 72 22.2 96 96 Calm 30.01 1016 7 11 0.00 0.00
4:53 am 04:53 Clear 73 22.8 72 22.2 96 96 Calm 30.01 1016 7 11 0.00 0.00
5:53 am 05:53 Clear 73 22.8 72 22.2 96 96 Calm 30.02 1017 7 11 0.00 0.00
6:53 am 06:53 Mostly Sunny 73 22.8 72 22.2 96 96 Calm 30.03 1017 7 11 0.00 0.00
7:53 am 07:53 Sunny 76 24.4 75 23.9 97 97 Calm 30.03 1017 7 11 0.00 0.00
8:53 am 08:53 Sunny 82 27.8 76 24.4 82 82 WSW 6 9 30.04 1017 10 16 0.00 0.00
9:53 am 09:53 Mostly Cloudy with Light Rain 85 29.4 76 24.4 75 75 W 10 17 30.04 1017 10 16 0.00 0.03
10:01 am 10:01 Partly Cloudy with Light Rain 86 30 75 23.9 70 70 W 10 17 30.03 1017 10 16 0.00 0.03
10:53 am 10:53 Mostly Cloudy with Light Rain 88 31.1 74 23.3 63 63 WNW 9 15 30.04 1017 10 16 0.00 0.03
11:53 am 11:53 Mostly Cloudy with Light Rain 88 31.1 74 23.3 63 63 NW 10 17 30.01 1016 10 16 0.00 0.03
12:53 pm 12:53 Sunny with Light Rain 92 33.3 73 22.8 54 54 W 14 22 29.99 1016 10 16 0.00 0.03
1:14 pm 13:14 Mostly Cloudy with Nearby Thunderstorms 88 31.1 72 22.2 59 59 NNW 15 24 30.00 1016 10 16 0.00 0.03
1:21 pm 13:21 Mostly Cloudy with Thunderstorms 86 30 70 21.1 59 59 NNW 14 22 30.00 1016 10 16 0.00 0.03
1:53 pm 13:53 Mostly Cloudy with Thunderstorms 82 27.8 75 23.9 79 79 NNW 9 15 30.00 1016 10 16 0.03 0.76
2:01 pm 14:01 Partly Cloudy with Nearby Thunderstorms 83 28.3 76 24.4 79 79 NNW 9 15 30.00 1016 10 16 0.00 0.00
2:36 pm 14:36 Sunny 87 30.6 71 21.7 59 59 NW 17 28 30.00 1016 10 16 0.00 0.03
2:53 pm 14:53 Sunny 89 31.7 71 21.7 55 55 WNW 13 20 29.99 1016 10 16 0.00 0.03
3:53 pm 15:53 Sunny 85 29.4 70 21.1 61 61 S 3 6 30.02 1017 10 16 0.00 0.00
4:53 pm 16:53 Partly Cloudy with Light Rain 77 25 70 21.1 79 79 S 5 7 30.02 1017 10 16 0.00 0.03
5:53 pm 17:53 Sunny 79 26.1 71 21.7 77 77 S 5 7 29.97 1015 10 16 0.00 0.03
6:53 pm 18:53 Sunny 78 25.6 71 21.7 79 79 SSE 10 17 29.97 1015 10 16 0.00 0.03
7:53 pm 19:53 Sunny 76 24.4 71 21.7 85 85 SSE 5 7 30.01 1016 10 16 0.00 0.00
8:53 pm 20:53 Clear 74 23.3 71 21.7 91 91 SSE 3 6 30.01 1016 10 16 0.00 0.00
9:53 pm 21:53 Clear with Light Rain 73 22.8 71 21.7 94 94 Calm 30.01 1016 10 16 0.00 0.03
10:53 pm 22:53 Clear 72 22.2 70 21.1 94 94 Calm 30.01 1016 10 16 0.00 0.03
11:10 pm 23:10 Mostly Clear 72 22.2 70 21.1 94 94 Calm 30.00 1016 10 16 0.00 0.00
11:34 pm 23:34 Mostly Cloudy with Light Rain 71 21.7 70 21.1 96 96 Calm 30.00 1016 9 14 0.00 0.03
11:53 pm 23:53 Mostly Cloudy with Light Rain 72 22.2 71 21.7 97 97 SSE 3 6 30.01 1016 9 14 0.00 0.03

Powered by AerisWeather